Regional Weather Roundup
Issued by NWS

Home | Current Version | Previous Version | Graphics & Text | Print | Product List | Glossary On
Versions: 1 2 3 4 5 6 7 8 9 10 11 12 13 14 15 16 17 18 19 20 21 22 23 24 25 26 27 28 29 30 31 32 33 34 35 36 37 38 39 40 41 42 43 44 45 46 47 48 49 50
000
ASUS43 KMPX 110001
RWRMN
WEATHER ROUNDUP FOR MINNESOTA
NATIONAL WEATHER SERVICE TWIN CITIES/CHANHASSEN MN
700 PM CDT THU JUL 10 2014


NOTE: "FAIR" INDICATES FEW OR NO CLOUDS BELOW 12,000 FEET WITH NO
SIGNIFICANT WEATHER AND/OR OBSTRUCTIONS TO VISIBILITY. N/A MEANS
CURRENT SKY AND/OR WEATHER CONDITIONS ARE NOT AVAILABLE.

MNZ060>063-068>070-110100-
   Twin Cities Metro

CITY           SKY/WX    TMP DP  RH WIND       PRES   REMARKS
TWIN CITIES    CLOUDY    82  58  43 S13       29.97F
6HR MIN TEMP:  81; 6HR MAX TEMP:  85;

ST PAUL        PTSUNNY   80  60  50 S12       29.98S
CRYSTAL        PTSUNNY   82  57  42 S12G22    29.95F
LAKEVILLE      PTSUNNY   79  59  50 S10       29.99F HAZE
EDEN PRAIRIE   PTSUNNY   80  61  52 S12       29.96F
6HR MIN TEMP:  80; 6HR MAX TEMP:  84;

SOUTH ST PAUL  PTSUNNY   81  58  46 S8        29.98S
LAKE ELMO      FAIR      79  63  57 S7        30.00S
$$
MNZ001>005-007-008-013>017-022>024-027-028-110100-
   Northwest Minnesota

CITY           SKY/WX    TMP DP  RH WIND       PRES   REMARKS
BEMIDJI        PTSUNNY   77  62  59 S9        29.92F
HALLOCK        PTSUNNY   81  61  50 S16G22    29.81F
ROSEAU         CLOUDY    75  63  64 S10       29.87F
WARROAD        CLOUDY    75  63  64 S9        29.88F
THIEF RVR FALL CLOUDY    77  61  57 SE10      29.86F
CROOKSTON      PTSUNNY   79  64  61 S12       29.84F
FOSSTON        CLOUDY    75  63  64 SE7       29.89F
DETROIT LAKES  CLOUDY    75  63  64 SE8       29.90F
MOORHEAD       CLOUDY    75  72  88 E5        29.84F
PARK RAPIDS    CLOUDY    78  62  57 SE12      29.91F
$$
MNZ006-009>011-018-025>026-110100-
   North Central Minnesota

CITY           SKY/WX    TMP DP  RH WIND       PRES   REMARKS
BAUDETTE       PTSUNNY   74  59  59 S5        29.91F
FLAG ISLAND    PTSUNNY   72  63  73 S9        29.87F
INTL FALLS     MOSUNNY   74  56  53 CALM      29.92F
6HR MIN TEMP:  74; 6HR MAX TEMP:  79;

LONGVILLE      CLOUDY    75  64  69 SE8       29.94S
GRAND RAPIDS   CLOUDY    73  61  64 SE7       29.95F
CRANE LAKE     SUNNY     75  50  41 CALM      29.96F
ORR            MOSUNNY   75  50  41 S5        29.94S
COOK           MOSUNNY   75  54  46 SW5       29.96F
$$
MNZ012-019>021-037-110100-
   Northeast Minnesota

CITY           SKY/WX    TMP DP  RH WIND       PRES   REMARKS
DULUTH         MOSUNNY   69  56  62 SE8       30.00S
6HR MIN TEMP:  69; 6HR MAX TEMP:  78;

ELY            SUNNY     75  48  38 SW10      29.98S
HIBBING        PTSUNNY   77  56  48 CALM      29.97S
EVELETH        MOSUNNY   77  54  44 SW10      29.98F
DULUTH HARBOR  MOSUNNY   57  52  82 NE7       30.01S
TWO HARBORS    SUNNY     72  57  60 E3        29.98S
SILVER BAY     SUNNY     66  57  72 NE3       29.99S
GRAND MARAIS     N/A     57  46  66 E5        30.02S
G MARAIS ARPRT SUNNY     66  48  52 SE5       30.06S
$$
MNZ029>031-032-039>041-046>048-054>057-064-110100-
   West Central Minnesota

CITY           SKY/WX    TMP DP  RH WIND       PRES   REMARKS
FERGUS FALLS   CLOUDY    73  64  73 SE7       29.87F
WHEATON        CLOUDY    77  63  61 SE12      29.86F
MORRIS         CLOUDY    79  66  65 S9        29.88F
ALEXANDRIA     CLOUDY    78  64  61 S10       29.93F
WADENA         CLOUDY    75  64  69 S7        29.91F
GLENWOOD       CLOUDY    79  64  61 SE9       29.93S
APPLETON       CLOUDY    81  63  54 S10G17    29.88F
BENSON         CLOUDY    81  64  57 S10       29.90S
ORTONVILLE     RAIN      77  64  65 SE7       29.88F
MADISON        LGT RAIN  79  66  65 SE9       29.89F
WILLMAR        FAIR      82  61  47 S6        29.94S
$$
MNZ033>034-036-042>043-049>051-058-059-110100-
   Central Minnesota

CITY           SKY/WX    TMP DP  RH WIND       PRES   REMARKS
ST CLOUD       CLOUDY    81  62  52 S8        29.94F
6HR MIN TEMP:  81; 6HR MAX TEMP:  86;

SAUK CENTRE    CLOUDY    79  64  60 SE10      29.93F
PAYNESVILLE    CLOUDY    77  61  58 SE7       29.94S HAZE
AITKIN         CLOUDY    79  64  61 SE7       29.94F
PINE RIVER     CLOUDY    77  63  61 SE6       29.97S
BRAINERD       CLOUDY    83  63  50 S8        29.94F
STAPLES        CLOUDY    77  63  61 SE5       29.92S
LONG PRAIRIE   PTSUNNY   77  64  65 SE8       29.93F HAZE
LITTLE FALLS   CLOUDY    79  61  53 SE7       29.94S
LITCHFIELD     CLOUDY    81  61  50 S7        29.95S
BUFFALO        CLOUDY    80  58  47 SE7       29.96F
MAPLE LAKE     CLOUDY    81  63  54 S3        29.97S
$$
MNZ037-044-045-052-053-110100-
   East Central Minnesota

CITY           SKY/WX    TMP DP  RH WIND       PRES   REMARKS
PRINCETON      CLOUDY    81  63  54 S7        29.96F
MORA           CLOUDY    75  61  60 CALM      29.98F
CAMBRIDGE      CLOUDY    82  64  54 S6        29.95F
RUSH CITY      CLOUDY    78  66  66 CALM      29.98S
MOOSE LAKE     CLOUDY    77  61  57 S3        29.96F
HINCKLEY       FAIR      77  64  65 SE6       29.97F
CLOQUET        PTSUNNY   72  57  60 E5        29.99F
MCGREGOR       CLOUDY    77  63  61 SE7       29.96F
$$
MNZ071>073-080-081-089-090-097-098-110100-
   Southwest Minnesota

CITY           SKY/WX    TMP DP  RH WIND       PRES   REMARKS
MONTEVIDEO     CLOUDY    81  64  57 SW12      29.92R
GRANITE FALLS  CLOUDY    80  63  56 SE12G20   29.93S
CANBY          CLOUDY    76  65  68 S9        29.90S
MARSHALL       CLOUDY    77  64  65 S15G21    29.90F
REDWOOD FALLS  CLOUDY    82  63  52 S16       29.93S
OLIVIA         CLOUDY    79  61  53 S9        29.93R
PIPESTONE      CLOUDY    77  64  65 S15       29.93F
WINDOM         LGT RAIN  77  64  65 S6        29.98R
WORTHINGTON    CLOUDY    77  64  65 S13       29.98S
JACKSON        CLOUDY    77  61  57 S10G16    30.00R
TRACY          CLOUDY    75  67  74 S12G17    29.93F
SLAYTON        CLOUDY    75  63  66 CALM      29.96F
$$
MNZ065>067-074>077-082>085-091>093-110100-
   South Central Minnesota

CITY           SKY/WX    TMP DP  RH WIND       PRES   REMARKS
MANKATO        CLOUDY    81  57  44 S16       29.98F
NEW ULM        PTSUNNY   79  63  57 S14       29.95F
ST JAMES       CLOUDY    81  63  54 SE8       29.98S
FAIRMONT       CLOUDY    79  59  50 S15       29.99S
GLENCOE        PTSUNNY   83  58  42 S6        29.95F
FARIBAULT      PTSUNNY   82  54  36 S8        30.01S
OWATONNA       PTSUNNY   81  57  44 S12       30.02S
WASECA         CLOUDY    79  52  38 S13G18    30.03S
ALBERT LEA     CLOUDY    81  55  41 S8        30.03S
$$
MNZ078>079-086>088-094>096-110100-
   Southeast Minnesota

CITY           SKY/WX    TMP DP  RH WIND       PRES   REMARKS
ROCHESTER      PTSUNNY   76  60  57 S12       30.06S
6HR MIN TEMP:  76; 6HR MAX TEMP:  80;

RED WING       MOSUNNY   82  61  47 S6        30.00R
STANTON        PTSUNNY   80  59  47 S10G17    29.99F
DODGE CENTER   PTSUNNY   77  63  61 S9        30.05S
WINONA         PTSUNNY   79  61  53 S5        30.03S
AUSTIN         PTSUNNY   77  57  50 S8        30.04S
PRESTON        MOSUNNY   77  62  58 S9        30.07S
$$
ABBREVIATIONS USED IN REMARKS
   TC - TEMPERATURES IN CELSIUS
  WCI - WIND CHILL INDEX
   HX - HEAT INDEX
  VSB - VISIBILITY
$$



USA.gov is the U.S. government's official web portal to all federal, state and local government web resources and services.